FW8992 Weather Reports


time (UTC)temp
F
wind
direction
speed
knots
gust
knots
rain 1hr
in
rain 24hr
in
rain mn
in
humidity
%
barometer
mb
20260507054548 52 63 2.6 8.7 0.00 0.00 0.00 80 1016.7
20260507053043 52 72 3.5 9.6 0.00 0.00 0.00 80 1016.5
20260507051544 53 26 1.7 8.7 0.00 0.00 0.00 78 1016.3
20260507050042 53 81 2.6 7.8 0.00 0.00 0.00 77 1016.1
20260507044556 53 74 3.5 14.8 0.00 0.00 0.00 77 1015.9
20260507043042 53 59 2.6 8.7 0.00 0.00 0.00 77 1016.1
20260507041550 54 34 1.7 5.2 0.00 0.00 0.00 77 1016.2
20260507040047 54 28 2.6 7.0 0.00 0.00 0.00 76 1016.2
20260507034544 54 90 1.7 7.8 0.00 0.00 0.00 75 1016.3
20260507033055 54 68 3.5 8.7 0.00 0.00 0.00 75 1016.2
20260507031558 55 19 0.9 4.3 0.00 0.00 0.00 74 1016.1
20260507030100 55 24 1.7 7.0 0.00 0.00 0.00 73 1015.9
20260507024552 55 44 1.7 4.3 0.00 0.00 0.00 73 1015.9
20260507023041 56 67 1.7 5.2 0.00 0.00 0.00 72 1015.8
20260507021551 56 80 1.7 4.3 0.00 0.00 0.00 71 1015.5
20260507020054 56 0 0.9 7.0 0.00 0.00 0.00 71 1015.3
20260507014551 57 82 0.9 5.2 0.00 0.00 0.00 69 1015.1
20260507013042 58 67 1.7 4.3 0.00 0.00 0.00 68 1015.0
20260507011547 59 88 1.7 4.3 0.00 0.00 0.00 65 1014.8
20260507010046 60 28 0.9 4.3 0.00 0.00 0.00 64 1014.8
20260507004543 61 41 1.7 7.0 0.00 0.00 0.00 61 1014.7
20260507003043 63 43 1.7 7.8 0.00 0.00 0.00 60 1014.6
20260507001546 62 350 3.5 9.6 0.00 0.00 0.00 60 1014.4
20260507000045 62 329 1.7 9.6 0.00 0.00 0.00 61 1014.4
20260506234553 62 11 2.6 8.7 0.00 0.00 0.00 61 1014.4
20260506233049 63 341 2.6 10.4 0.00 0.00 0.00 60 1014.3
20260506231552 64 5 2.6 10.4 0.00 0.00 0.00 59 1014.1
20260506230040 64 32 2.6 8.7 0.00 0.00 0.00 59 1013.9
20260506224541 65 44 3.5 9.6 0.00 0.00 0.00 58 1013.6
20260506223044 66 34 3.5 9.6 0.00 0.00 0.00 56 1013.4
20260506221545 67 9 2.6 9.6 0.00 0.00 0.00 55 1013.4
20260506220043 68 17 1.7 6.1 0.00 0.00 0.00 54 1013.4
20260506214545 69 360 2.6 7.8 0.00 0.00 0.00 52 1013.2
20260506213040 69 350 3.5 8.7 0.00 0.00 0.00 52 1013.1
20260506211550 69 349 2.6 10.4 0.00 0.00 0.00 53 1013.4
20260506210045 69 345 2.6 7.8 0.00 0.00 0.00 53 1013.4
20260506204543 69 5 2.6 7.8 0.00 0.00 0.00 53 1013.4
20260506203042 70 30 1.7 8.7 0.00 0.00 0.00 56 1013.5
20260506201541 68 51 2.6 9.6 0.00 0.00 0.00 54 1013.8
20260506200040 68 331 2.6 8.7 0.00 0.00 0.00 55 1013.8
20260506194544 67 16 2.6 9.6 0.00 0.00 0.00 56 1013.9
20260506193044 67 63 2.6 7.8 0.00 0.00 0.00 55 1014.0
20260506191542 66 327 1.7 10.4 0.00 0.00 0.00 55 1014.2
20260506190049 65 17 1.7 7.8 0.00 0.00 0.00 57 1014.4
20260506184547 64 347 2.6 9.6 0.00 0.00 0.00 60 1014.4
20260506183048 63 309 1.7 9.6 0.00 0.00 0.00 59 1014.6
20260506181543 62 319 2.6 8.7 0.00 0.00 0.00 61 1014.9
20260506180046 61 350 3.5 9.6 0.00 0.00 0.00 62 1015.1
20260506174542 60 22 3.5 12.2 0.00 0.00 0.00 63 1015.2
20260506173113 58 13 4.3 12.2 0.00 0.00 0.00 66 1015.1
20260506171539 56 347 4.3 11.3 0.00 0.00 0.00 70 1015.1
20260506170046 54 345 4.3 10.4 0.00 0.00 0.00 73 1015.3
20260506164548 54 352 2.6 13.0 0.00 0.00 0.00 74 1015.3
20260506163043 55 352 4.3 12.2 0.00 0.00 0.00 74 1015.2
20260506161542 54 352 3.5 13.0 0.00 0.00 0.00 75 1014.8
20260506160040 53 327 3.5 11.3 0.00 0.00 0.00 78 1014.6
20260506154545 51 318 5.2 12.2 0.00 0.00 0.00 80 1014.3
20260506153047 50 338 5.2 12.2 0.00 0.00 0.00 83 1014.4
20260506151545 50 344 6.1 13.0 0.00 0.00 0.00 84 1014.4
20260506150044 49 331 6.1 15.6 0.00 0.00 0.00 84 1014.1
20260506144544 50 352 6.1 14.8 0.00 0.00 0.00 83 1014.0
20260506143037 49 303 4.3 11.3 0.00 0.00 0.00 84 1014.3
20260506141543 49 20 2.6 8.7 0.00 0.00 0.00 85 1014.5
20260506140043 49 44 3.5 7.8 0.00 0.00 0.00 84 1014.7
20260506134542 49 352 3.5 11.3 0.00 0.00 0.00 85 1014.9
20260506133041 49 352 3.5 8.7 0.00 0.00 0.00 85 1014.5
20260506131548 49 13 2.6 7.0 0.00 0.00 0.00 85 1014.4
20260506130052 48 352 4.3 10.4 0.00 0.00 0.00 85 1013.6
20260506124552 48 9 3.5 8.7 0.00 0.00 0.00 85 1013.8
20260506123043 48 360 2.6 7.8 0.00 0.00 0.00 85 1013.8
20260506121542 48 5 2.6 12.2 0.00 0.00 0.00 85 1013.3
20260506120040 48 20 3.5 10.4 0.00 0.00 0.00 85 1012.8
20260506114546 49 26 4.3 11.3 0.00 0.00 0.00 84 1012.2
20260506113052 49 360 3.5 9.6 0.00 0.00 0.00 84 1012.4
20260506111544 50 55 3.5 10.4 0.00 0.00 0.00 83 1012.1
20260506110051 50 342 3.5 9.6 0.00 0.00 0.00 84 1012.0
20260506104548 50 21 1.7 9.6 0.00 0.00 0.00 85 1012.2
20260506103047 50 352 3.5 9.6 0.00 0.00 0.00 85 1011.9
20260506101555 49 24 3.5 8.7 0.00 0.00 0.00 85 1012.0
20260506100101 49 348 2.6 8.7 0.00 0.00 0.00 85 1011.6
20260506094543 49 44 2.6 8.7 0.00 0.00 0.00 85 1011.1
20260506093046 49 336 3.5 10.4 0.00 0.00 0.00 85 1011.1
20260506091540 49 40 0.9 7.8 0.00 0.00 0.00 85 1011.0
20260506090035 49 352 2.6 7.8 0.00 0.00 0.00 84 1010.9
20260506084604 50 9 2.6 8.7 0.00 0.00 0.00 84 1010.8
20260506083044 50 54 2.6 7.8 0.00 0.00 0.00 83 1010.7
20260506081550 50 13 2.6 8.7 0.00 0.00 0.00 83 1010.7
20260506073048 52 29 3.5 7.8 0.00 0.00 0.00 83 1011.0
20260506071545 52 21 3.5 8.7 0.00 0.00 0.00 83 1010.9
20260506061539 53 14 2.6 7.8 0.00 0.00 0.00 81 1010.8